Volver al catálogo

STARLINK-32908

ActivoComunicacionesVLEO
NORAD 63084·PAYLOAD·🇺🇸 United States

Lanzado Feb 23, 2025 desde Vandenberg Space Force Base

Loading…

Próximos Pases (próximas 24 horas)

TLE

ActualizadoSource: CelesTrak SupGP

Época: Sep 15, 2026, 02:32 UTC

1 63084C 25037H   26258.10604167 -.00055537  00000+0 -19318-2 0  2584
2 63084  70.0003 235.2390 0002749 267.3666 164.5834 15.29611555    17

Sigue STARLINK-32908 en tiempo real con AllMySat

Download on the App Store